RYR3848 EGSS-LERS

Flight info

Callsign RYR3848
Flight time 2h 2m
Altitude 33000
Route NUGBO M183 SILVA Q41 COWLY UT71 VAPID UN859 SOPIL DCT BALAN DCT EVPOK DCT NARAK DCT GAI DCT LOMRA DCT ROCAN DCT PUMAL/N0362F230 N31 BERGA
Aircraft B38M/M-SADE3FGIJ1LRWYZ/SB1

Departure

Time 2026-05-09 11:33
Airport London Stansted Airport (EGSS)

Arrival

Time 2026-05-09 13:35
Airport Reus Airport (LERS)
Time Latitude Longitude Altitude Speed Heading
2026-05-09 11:06 51.89366 0.25734 351 ft 0 kts 42°
2026-05-09 11:22 51.89360 0.25725 357 ft 4 kts 42°
2026-05-09 11:23 51.89344 0.25702 361 ft 4 kts 36°
2026-05-09 11:23 51.89330 0.25691 354 ft 4 kts 355°
2026-05-09 11:23 51.89307 0.25719 361 ft 4 kts 313°
2026-05-09 11:23 51.89304 0.25725 353 ft 1 kts 313°
2026-05-09 11:26 51.89306 0.25722 361 ft 1 kts 313°
2026-05-09 11:26 51.89320 0.25697 352 ft 5 kts 313°
2026-05-09 11:26 51.89351 0.25643 358 ft 8 kts 313°
2026-05-09 11:27 51.89388 0.25554 357 ft 11 kts 302°
2026-05-09 11:27 51.89424 0.25437 357 ft 7 kts 269°
2026-05-09 11:27 51.89400 0.25383 351 ft 7 kts 224°
2026-05-09 11:27 51.89357 0.25316 356 ft 10 kts 224°
2026-05-09 11:28 51.89294 0.25220 351 ft 14 kts 223°
2026-05-09 11:28 51.89231 0.25083 354 ft 17 kts 238°
2026-05-09 11:28 51.89147 0.24936 358 ft 19 kts 224°
2026-05-09 11:28 51.89048 0.24783 359 ft 21 kts 224°
2026-05-09 11:29 51.88939 0.24617 351 ft 22 kts 221°
2026-05-09 11:29 51.88816 0.24444 360 ft 24 kts 220°
2026-05-09 11:29 51.88696 0.24261 354 ft 23 kts 225°
2026-05-09 11:29 51.88575 0.24080 353 ft 23 kts 221°
2026-05-09 11:30 51.88455 0.23894 354 ft 25 kts 225°
2026-05-09 11:30 51.88326 0.23705 355 ft 25 kts 222°
2026-05-09 11:30 51.88208 0.23525 355 ft 24 kts 225°
2026-05-09 11:30 51.88098 0.23356 351 ft 22 kts 223°
2026-05-09 11:31 51.87979 0.23179 358 ft 24 kts 221°
2026-05-09 11:31 51.87861 0.23007 351 ft 21 kts 223°
2026-05-09 11:31 51.87816 0.22874 352 ft 8 kts 292°
2026-05-09 11:31 51.87854 0.22807 354 ft 10 kts 315°
2026-05-09 11:32 51.87928 0.22698 351 ft 16 kts 331°
2026-05-09 11:32 51.88013 0.22750 342 ft 15 kts 43°
2026-05-09 11:32 51.88152 0.22960 340 ft 57 kts 43°
2026-05-09 11:32 51.88617 0.23662 346 ft 124 kts 43°
2026-05-09 11:33 51.89388 0.24797 438 ft 167 kts 44°
2026-05-09 11:33 51.90281 0.26069 1165 ft 171 kts 45°
2026-05-09 11:33 51.92030 0.28710 2586 ft 188 kts 37°
2026-05-09 11:34 51.93330 0.29481 3016 ft 213 kts 12°
2026-05-09 11:34 51.94879 0.29206 3416 ft 240 kts 340°
2026-05-09 11:34 51.96244 0.27563 3992 ft 250 kts 307°
2026-05-09 11:34 51.96901 0.24969 4761 ft 253 kts 281°
2026-05-09 11:35 51.97223 0.22146 4926 ft 255 kts 279°
2026-05-09 11:35 51.97539 0.19297 5022 ft 260 kts 279°
2026-05-09 11:35 51.97869 0.16316 5589 ft 277 kts 280°
2026-05-09 11:35 51.98209 0.13239 6541 ft 277 kts 279°
2026-05-09 11:36 51.98544 0.10167 7422 ft 279 kts 279°
2026-05-09 11:36 51.98860 0.07059 8352 ft 280 kts 274°
2026-05-09 11:36 51.98654 0.03946 9278 ft 278 kts 257°
2026-05-09 11:36 51.98269 0.00862 10144 ft 280 kts 258°
2026-05-09 11:37 51.97875 -0.02287 10694 ft 293 kts 258°
2026-05-09 11:37 51.97452 -0.05614 11109 ft 310 kts 258°
2026-05-09 11:37 51.97002 -0.09102 11714 ft 318 kts 257°
2026-05-09 11:37 51.96547 -0.12623 12540 ft 321 kts 257°
2026-05-09 11:38 51.96082 -0.16196 13321 ft 326 kts 257°
2026-05-09 11:38 51.95610 -0.19818 14125 ft 330 kts 257°
2026-05-09 11:38 51.95134 -0.23454 14835 ft 333 kts 257°
2026-05-09 11:38 51.94649 -0.27147 15553 ft 337 kts 257°
2026-05-09 11:39 51.94159 -0.30877 16272 ft 340 kts 257°
2026-05-09 11:39 51.93662 -0.34644 16977 ft 344 kts 257°
2026-05-09 11:39 51.93169 -0.38374 17650 ft 347 kts 257°
2026-05-09 11:40 51.92144 -0.46091 18917 ft 354 kts 257°
2026-05-09 11:40 51.91623 -0.50003 19480 ft 357 kts 257°
2026-05-09 11:40 51.91095 -0.53950 20032 ft 360 kts 256°
2026-05-09 11:40 51.90561 -0.57934 20586 ft 363 kts 256°
2026-05-09 11:41 51.90021 -0.61951 21120 ft 367 kts 256°
2026-05-09 11:41 51.89475 -0.66006 21648 ft 370 kts 256°
2026-05-09 11:41 51.88922 -0.70094 22181 ft 374 kts 256°
2026-05-09 11:41 51.88364 -0.74218 22718 ft 377 kts 256°
2026-05-09 11:42 51.87798 -0.78383 23244 ft 380 kts 256°
2026-05-09 11:42 51.87225 -0.82581 23760 ft 384 kts 256°
2026-05-09 11:42 51.86648 -0.86809 24206 ft 386 kts 256°
2026-05-09 11:42 51.86057 -0.91061 24672 ft 388 kts 253°
2026-05-09 11:43 51.85022 -0.95036 25102 ft 387 kts 236°
2026-05-09 11:43 51.83244 -0.98320 25535 ft 387 kts 218°
2026-05-09 11:43 51.80970 -1.00549 25937 ft 389 kts 202°
2026-05-09 11:43 51.78376 -1.01775 26336 ft 391 kts 192°
2026-05-09 11:44 51.75667 -1.02676 26756 ft 394 kts 191°
2026-05-09 11:44 51.72965 -1.03476 27203 ft 396 kts 190°
2026-05-09 11:44 51.70241 -1.04231 27631 ft 398 kts 189°
2026-05-09 11:44 51.67497 -1.04964 28039 ft 401 kts 189°
2026-05-09 11:45 51.64740 -1.05682 28450 ft 403 kts 189°
2026-05-09 11:45 51.61966 -1.06369 28853 ft 405 kts 186°
2026-05-09 11:45 51.59145 -1.06359 29242 ft 407 kts 178°
2026-05-09 11:45 51.56311 -1.06192 29600 ft 410 kts 179°
2026-05-09 11:46 51.53452 -1.06041 29978 ft 412 kts 178°
2026-05-09 11:46 51.50582 -1.05885 30341 ft 413 kts 178°
2026-05-09 11:46 51.47699 -1.05728 30655 ft 415 kts 178°
2026-05-09 11:46 51.44814 -1.05570 31047 ft 415 kts 179°
2026-05-09 11:47 51.41935 -1.05412 31488 ft 413 kts 179°
2026-05-09 11:47 51.39070 -1.05256 31940 ft 411 kts 179°
2026-05-09 11:47 51.36219 -1.05101 32364 ft 410 kts 179°
2026-05-09 11:47 51.33371 -1.04946 32783 ft 408 kts 179°
2026-05-09 11:48 51.30531 -1.04790 33096 ft 409 kts 179°
2026-05-09 11:48 51.24917 -1.03897 33083 ft 406 kts 162°
2026-05-09 11:49 51.19750 -1.00321 33102 ft 409 kts 158°
2026-05-09 11:49 51.14531 -0.96592 33103 ft 409 kts 158°
2026-05-09 11:50 51.09390 -0.92872 33099 ft 409 kts 157°
2026-05-09 11:50 51.04215 -0.89127 33091 ft 408 kts 157°
2026-05-09 11:51 50.99046 -0.85395 33086 ft 408 kts 157°
2026-05-09 11:51 50.93876 -0.81671 33082 ft 408 kts 158°
2026-05-09 11:52 50.88704 -0.77955 33078 ft 408 kts 158°
2026-05-09 11:52 50.83679 -0.73784 33079 ft 409 kts 149°
2026-05-09 11:53 50.78883 -0.68900 33079 ft 410 kts 149°
2026-05-09 11:53 50.74088 -0.64028 33076 ft 410 kts 149°
2026-05-09 11:54 50.69292 -0.59165 33074 ft 410 kts 149°
2026-05-09 11:54 50.64499 -0.54314 33080 ft 410 kts 149°
2026-05-09 11:55 50.59699 -0.49470 33066 ft 410 kts 150°
2026-05-09 11:56 50.45280 -0.34989 33074 ft 410 kts 150°
2026-05-09 11:57 50.40470 -0.30182 33072 ft 410 kts 150°
2026-05-09 11:57 50.35666 -0.25392 33069 ft 409 kts 150°
2026-05-09 11:58 50.30854 -0.20607 33064 ft 410 kts 150°
2026-05-09 11:58 50.26042 -0.15832 33060 ft 409 kts 150°
2026-05-09 11:59 50.21228 -0.11067 33057 ft 410 kts 150°
2026-05-09 11:59 50.16415 -0.06315 33053 ft 409 kts 150°
2026-05-09 12:00 50.11600 -0.01573 33053 ft 409 kts 152°
2026-05-09 12:00 50.09055 0.00265 33042 ft 402 kts 167°
2026-05-09 12:00 50.06330 0.01325 33047 ft 403 kts 167°
2026-05-09 12:01 50.00896 0.03571 33049 ft 404 kts 168°
2026-05-09 12:01 49.95459 0.05731 33042 ft 403 kts 168°
2026-05-09 12:02 49.90013 0.07871 33042 ft 403 kts 168°
2026-05-09 12:02 49.84578 0.10000 33035 ft 403 kts 168°
2026-05-09 12:03 49.79135 0.12127 33033 ft 403 kts 168°
2026-05-09 12:03 49.73700 0.14245 33026 ft 403 kts 168°
2026-05-09 12:04 49.68271 0.16371 33024 ft 402 kts 168°
2026-05-09 12:04 49.62858 0.18560 33020 ft 402 kts 168°
2026-05-09 12:05 49.57444 0.20738 33014 ft 402 kts 168°
2026-05-09 12:05 49.52034 0.22908 33019 ft 402 kts 168°
2026-05-09 12:06 49.46626 0.25073 33023 ft 402 kts 168°
2026-05-09 12:06 49.41242 0.27223 33015 ft 402 kts 168°
2026-05-09 12:07 49.35820 0.29384 33019 ft 402 kts 169°
2026-05-09 12:07 49.30401 0.31577 33020 ft 403 kts 168°
2026-05-09 12:08 49.24992 0.33868 33019 ft 404 kts 168°
2026-05-09 12:08 49.20454 0.35778 33025 ft 404 kts 168°
2026-05-09 12:09 49.15030 0.38055 33023 ft 404 kts 168°
2026-05-09 12:09 49.09605 0.40328 33024 ft 405 kts 169°
2026-05-09 12:10 48.98734 0.44866 33018 ft 405 kts 169°
2026-05-09 12:11 48.93324 0.47116 33012 ft 406 kts 169°
2026-05-09 12:11 48.87880 0.49377 33012 ft 406 kts 169°
2026-05-09 12:12 48.82433 0.51632 33012 ft 406 kts 170°
2026-05-09 12:12 48.76978 0.53828 33006 ft 405 kts 171°
2026-05-09 12:13 48.71521 0.55970 33005 ft 405 kts 171°
2026-05-09 12:13 48.66065 0.58113 33005 ft 405 kts 171°
2026-05-09 12:14 48.60612 0.60250 33004 ft 405 kts 172°
2026-05-09 12:14 48.55165 0.62380 32995 ft 404 kts 172°
2026-05-09 12:15 48.49721 0.64565 32993 ft 405 kts 172°
2026-05-09 12:15 48.44287 0.66775 32990 ft 405 kts 172°
2026-05-09 12:16 48.38852 0.68976 32995 ft 404 kts 172°
2026-05-09 12:16 48.33425 0.71170 32989 ft 404 kts 172°
2026-05-09 12:17 48.27996 0.73359 32985 ft 404 kts 172°
2026-05-09 12:17 48.22562 0.75517 32980 ft 404 kts 173°
2026-05-09 12:18 48.17130 0.77657 32977 ft 404 kts 173°
2026-05-09 12:18 48.11696 0.79794 32977 ft 404 kts 173°
2026-05-09 12:19 48.06262 0.81927 32972 ft 404 kts 173°
2026-05-09 12:19 48.01277 0.83879 32975 ft 404 kts 173°
2026-05-09 12:20 47.95845 0.86002 32971 ft 404 kts 173°
2026-05-09 12:20 47.90456 0.88103 32969 ft 404 kts 173°
2026-05-09 12:21 47.84973 0.90237 32970 ft 403 kts 173°
2026-05-09 12:21 47.79542 0.92344 32974 ft 403 kts 173°
2026-05-09 12:22 47.74117 0.94444 32967 ft 403 kts 173°
2026-05-09 12:22 47.68695 0.96538 32968 ft 403 kts 173°
2026-05-09 12:23 47.63277 0.98627 32967 ft 402 kts 173°
2026-05-09 12:23 47.57860 1.00710 32966 ft 402 kts 173°
2026-05-09 12:24 47.52449 1.02787 32965 ft 402 kts 173°
2026-05-09 12:24 47.47036 1.04861 32963 ft 401 kts 173°
2026-05-09 12:25 47.41623 1.06361 32962 ft 386 kts 188°
2026-05-09 12:25 47.36221 1.06259 32963 ft 389 kts 187°
2026-05-09 12:26 47.30816 1.06156 32961 ft 388 kts 187°
2026-05-09 12:26 47.25414 1.06033 32963 ft 388 kts 187°
2026-05-09 12:27 47.20058 1.05908 32964 ft 388 kts 187°
2026-05-09 12:27 47.14664 1.05782 32960 ft 387 kts 187°
2026-05-09 12:28 47.09284 1.05657 32959 ft 387 kts 187°
2026-05-09 12:28 47.03895 1.05531 32960 ft 387 kts 187°
2026-05-09 12:29 46.98529 1.05305 32957 ft 386 kts 187°
2026-05-09 12:29 46.93191 1.05077 32956 ft 386 kts 187°
2026-05-09 12:30 46.87795 1.04850 32952 ft 385 kts 187°
2026-05-09 12:30 46.79762 1.04512 32954 ft 385 kts 187°
2026-05-09 12:31 46.71730 1.04175 32955 ft 385 kts 187°
2026-05-09 12:32 46.66387 1.03951 32953 ft 384 kts 186°
2026-05-09 12:32 46.61050 1.03728 32957 ft 383 kts 186°
2026-05-09 12:33 46.55722 1.03506 32953 ft 383 kts 186°
2026-05-09 12:33 46.50399 1.03795 32955 ft 390 kts 172°
2026-05-09 12:34 46.45101 1.05542 32955 ft 391 kts 173°
2026-05-09 12:34 46.39809 1.07288 32953 ft 390 kts 173°
2026-05-09 12:35 46.34526 1.09049 32956 ft 389 kts 173°
2026-05-09 12:35 46.29249 1.10805 32952 ft 389 kts 173°
2026-05-09 12:36 46.23984 1.12556 32955 ft 388 kts 173°
2026-05-09 12:36 46.18729 1.14299 32954 ft 387 kts 173°
2026-05-09 12:37 46.14372 1.15742 32960 ft 386 kts 173°
2026-05-09 12:37 46.11388 1.16728 32955 ft 385 kts 173°
2026-05-09 12:38 46.06173 1.18450 32964 ft 385 kts 173°
2026-05-09 12:38 46.00962 1.20168 32961 ft 384 kts 173°
2026-05-09 12:39 45.95758 1.21880 32968 ft 383 kts 173°
2026-05-09 12:39 45.90563 1.23585 32967 ft 382 kts 173°
2026-05-09 12:40 45.85386 1.25281 32968 ft 381 kts 173°
2026-05-09 12:40 45.80217 1.26972 32963 ft 381 kts 173°
2026-05-09 12:41 45.75050 1.28659 32966 ft 381 kts 174°
2026-05-09 12:41 45.69885 1.30341 32961 ft 381 kts 174°
2026-05-09 12:42 45.64726 1.32019 32958 ft 380 kts 174°
2026-05-09 12:42 45.59601 1.33683 32963 ft 380 kts 174°
2026-05-09 12:43 45.54454 1.35351 32959 ft 379 kts 174°
2026-05-09 12:43 45.49310 1.37015 32958 ft 379 kts 174°
2026-05-09 12:44 45.44172 1.38672 32952 ft 378 kts 174°
2026-05-09 12:44 45.39040 1.40325 32955 ft 378 kts 174°
2026-05-09 12:45 45.33902 1.41977 32952 ft 378 kts 174°
2026-05-09 12:45 45.28767 1.43626 32958 ft 378 kts 174°
2026-05-09 12:46 45.23636 1.45269 32954 ft 378 kts 174°
2026-05-09 12:46 45.18529 1.46902 32962 ft 378 kts 174°
2026-05-09 12:47 45.13383 1.48544 32962 ft 378 kts 174°
2026-05-09 12:47 45.08257 1.50178 32969 ft 378 kts 174°
2026-05-09 12:48 45.03128 1.51809 32967 ft 377 kts 173°
2026-05-09 12:48 44.98004 1.53435 32962 ft 377 kts 173°
2026-05-09 12:49 44.92891 1.55055 32963 ft 376 kts 173°
2026-05-09 12:49 44.87783 1.56671 32959 ft 376 kts 173°
2026-05-09 12:50 44.82680 1.58282 32959 ft 376 kts 173°
2026-05-09 12:50 44.77578 1.59889 32954 ft 375 kts 173°
2026-05-09 12:51 44.72501 1.61486 32952 ft 375 kts 173°
2026-05-09 12:51 44.67415 1.63083 32959 ft 374 kts 173°
2026-05-09 12:52 44.62338 1.64674 32951 ft 373 kts 173°
2026-05-09 12:52 44.57265 1.66261 32952 ft 373 kts 173°
2026-05-09 12:53 44.53051 1.67576 32955 ft 373 kts 173°
2026-05-09 12:53 44.47983 1.69158 32958 ft 373 kts 173°
2026-05-09 12:54 44.42914 1.70736 32954 ft 373 kts 173°
2026-05-09 12:54 44.37844 1.72311 32954 ft 373 kts 173°
2026-05-09 12:55 44.32772 1.73885 32957 ft 373 kts 173°
2026-05-09 12:55 44.27683 1.75232 32965 ft 371 kts 176°
2026-05-09 12:56 44.22576 1.76352 32955 ft 372 kts 175°
2026-05-09 12:56 44.17488 1.77489 32958 ft 372 kts 175°
2026-05-09 12:57 44.12347 1.78640 32953 ft 372 kts 175°
2026-05-09 12:57 44.07229 1.79785 32948 ft 373 kts 175°
2026-05-09 12:58 44.02105 1.80928 32948 ft 373 kts 175°
2026-05-09 12:58 43.96977 1.82071 32955 ft 373 kts 175°
2026-05-09 12:59 43.91871 1.82655 32940 ft 371 kts 180°
2026-05-09 12:59 43.86676 1.83144 32937 ft 371 kts 179°
2026-05-09 13:00 43.81519 1.83654 32945 ft 372 kts 179°
2026-05-09 13:00 43.76353 1.84167 32944 ft 372 kts 179°
2026-05-09 13:01 43.71185 1.84682 32928 ft 372 kts 179°
2026-05-09 13:01 43.66053 1.85190 32939 ft 372 kts 179°
2026-05-09 13:02 43.60846 1.85706 32942 ft 373 kts 179°
2026-05-09 13:02 43.55695 1.86215 32937 ft 373 kts 179°
2026-05-09 13:03 43.50516 1.86726 32932 ft 374 kts 179°
2026-05-09 13:03 43.45325 1.87237 32934 ft 374 kts 179°
2026-05-09 13:04 43.40134 1.87748 32926 ft 374 kts 179°
2026-05-09 13:04 43.34947 1.88256 32931 ft 374 kts 179°
2026-05-09 13:05 43.29742 1.88754 32924 ft 374 kts 179°
2026-05-09 13:05 43.24547 1.89251 32934 ft 375 kts 179°
2026-05-09 13:06 43.19348 1.89747 32939 ft 375 kts 179°
2026-05-09 13:06 43.14131 1.90244 32930 ft 376 kts 179°
2026-05-09 13:07 43.08912 1.90741 32931 ft 376 kts 179°
2026-05-09 13:07 43.03749 1.91231 32930 ft 360 kts 179°
2026-05-09 13:07 43.01308 1.91463 32938 ft 344 kts 179°
2026-05-09 13:08 42.98964 1.91685 32866 ft 331 kts 179°
2026-05-09 13:08 42.96687 1.91901 32645 ft 330 kts 179°
2026-05-09 13:08 42.94357 1.92121 32182 ft 339 kts 179°
2026-05-09 13:08 42.91992 1.92345 31732 ft 342 kts 179°
2026-05-09 13:09 42.89642 1.92567 31310 ft 344 kts 179°
2026-05-09 13:09 42.87222 1.92796 30879 ft 343 kts 178°
2026-05-09 13:09 42.84848 1.93020 30465 ft 342 kts 178°
2026-05-09 13:09 42.82475 1.93244 30067 ft 341 kts 178°
2026-05-09 13:10 42.80150 1.93463 29596 ft 340 kts 178°
2026-05-09 13:10 42.77793 1.93684 29157 ft 338 kts 178°
2026-05-09 13:10 42.75466 1.93903 28762 ft 334 kts 178°
2026-05-09 13:10 42.73159 1.94120 28383 ft 331 kts 178°
2026-05-09 13:11 42.70873 1.94335 28014 ft 328 kts 178°
2026-05-09 13:11 42.68610 1.94548 27640 ft 324 kts 178°
2026-05-09 13:11 42.66376 1.94904 27210 ft 323 kts 173°
2026-05-09 13:11 42.64180 1.95375 26896 ft 317 kts 174°
2026-05-09 13:12 42.62011 1.95822 26568 ft 316 kts 174°
2026-05-09 13:12 42.59810 1.96266 26221 ft 322 kts 174°
2026-05-09 13:12 42.57574 1.96712 25867 ft 326 kts 174°
2026-05-09 13:12 42.55329 1.97159 25524 ft 326 kts 174°
2026-05-09 13:13 42.53085 1.97604 25190 ft 326 kts 174°
2026-05-09 13:13 42.50850 1.98047 24843 ft 324 kts 174°
2026-05-09 13:13 42.48621 1.98488 24508 ft 323 kts 174°
2026-05-09 13:13 42.46403 1.98925 24157 ft 321 kts 174°
2026-05-09 13:14 42.44198 1.99361 23818 ft 319 kts 174°
2026-05-09 13:14 42.42004 1.99794 23470 ft 317 kts 174°
2026-05-09 13:16 42.27097 2.01977 21120 ft 306 kts 175°
2026-05-09 13:16 42.24961 2.02244 20798 ft 310 kts 175°
2026-05-09 13:16 42.22815 2.02512 20477 ft 310 kts 175°
2026-05-09 13:16 42.20672 2.02780 20152 ft 309 kts 175°
2026-05-09 13:17 42.18524 2.02819 19793 ft 310 kts 189°
2026-05-09 13:17 42.16516 2.01813 19477 ft 309 kts 210°
2026-05-09 13:17 42.14836 2.00000 19172 ft 312 kts 219°
2026-05-09 13:17 42.13207 1.98051 18835 ft 314 kts 219°
2026-05-09 13:18 42.11612 1.96097 18506 ft 313 kts 220°
2026-05-09 13:18 42.09990 1.94086 18149 ft 313 kts 220°
2026-05-09 13:18 42.08423 1.92128 17787 ft 311 kts 220°
2026-05-09 13:18 42.06849 1.90148 17452 ft 309 kts 220°
2026-05-09 13:19 42.05285 1.88178 17113 ft 307 kts 220°
2026-05-09 13:19 42.03710 1.86194 16778 ft 305 kts 220°
2026-05-09 13:19 42.02185 1.84270 16453 ft 304 kts 220°
2026-05-09 13:19 42.00648 1.82335 16134 ft 302 kts 220°
2026-05-09 13:20 41.99123 1.80414 15806 ft 300 kts 220°
2026-05-09 13:20 41.97606 1.78504 15492 ft 298 kts 220°
2026-05-09 13:20 41.96088 1.76621 15163 ft 296 kts 217°
2026-05-09 13:20 41.94416 1.75026 14821 ft 294 kts 212°
2026-05-09 13:21 41.92743 1.73469 14507 ft 291 kts 212°
2026-05-09 13:21 41.91082 1.71903 14213 ft 293 kts 213°
2026-05-09 13:21 41.89418 1.70322 13910 ft 293 kts 213°
2026-05-09 13:21 41.87753 1.68729 13572 ft 294 kts 213°
2026-05-09 13:22 41.86092 1.67137 13227 ft 293 kts 213°
2026-05-09 13:22 41.84444 1.65555 12908 ft 290 kts 213°
2026-05-09 13:22 41.82811 1.63989 12592 ft 287 kts 213°
2026-05-09 13:23 41.76369 1.57813 11384 ft 286 kts 213°
2026-05-09 13:23 41.74752 1.56266 11084 ft 286 kts 213°
2026-05-09 13:24 41.73042 1.54964 10777 ft 280 kts 194°
2026-05-09 13:24 41.71157 1.54437 10555 ft 274 kts 189°
2026-05-09 13:24 41.69296 1.53937 10335 ft 273 kts 189°
2026-05-09 13:24 41.67433 1.53446 10120 ft 273 kts 189°
2026-05-09 13:25 41.65572 1.52962 9884 ft 272 kts 189°
2026-05-09 13:25 41.63709 1.52484 9628 ft 272 kts 189°
2026-05-09 13:25 41.60001 1.51538 9129 ft 271 kts 189°
2026-05-09 13:26 41.58149 1.51067 8887 ft 270 kts 189°
2026-05-09 13:26 41.56306 1.50597 8654 ft 270 kts 189°
2026-05-09 13:26 41.54448 1.50302 8394 ft 268 kts 174°
2026-05-09 13:26 41.52612 1.50671 8151 ft 267 kts 169°
2026-05-09 13:27 41.50788 1.51072 7935 ft 266 kts 169°
2026-05-09 13:27 41.48957 1.51478 7715 ft 266 kts 169°
2026-05-09 13:27 41.47129 1.51888 7467 ft 266 kts 168°
2026-05-09 13:27 41.45305 1.52296 7246 ft 266 kts 168°
2026-05-09 13:28 41.43487 1.52704 7015 ft 265 kts 168°
2026-05-09 13:28 41.41666 1.53112 6771 ft 264 kts 168°
2026-05-09 13:28 41.39868 1.53516 6551 ft 259 kts 168°
2026-05-09 13:28 41.38109 1.53909 6319 ft 254 kts 167°
2026-05-09 13:29 41.36373 1.54297 6094 ft 250 kts 167°
2026-05-09 13:29 41.34687 1.54561 5878 ft 248 kts 181°
2026-05-09 13:29 41.33046 1.53894 5619 ft 248 kts 204°
2026-05-09 13:29 41.31504 1.52897 5444 ft 246 kts 201°
2026-05-09 13:30 41.29938 1.51916 5297 ft 254 kts 201°
2026-05-09 13:30 41.28422 1.50961 5019 ft 273 kts 202°
2026-05-09 13:30 41.26627 1.49826 4682 ft 299 kts 202°
2026-05-09 13:30 41.24685 1.48528 4262 ft 325 kts 210°
2026-05-09 13:31 41.23094 1.46350 3613 ft 334 kts 241°
2026-05-09 13:31 41.22345 1.43574 3608 ft 305 kts 251°
2026-05-09 13:31 41.21709 1.40995 3502 ft 285 kts 250°
2026-05-09 13:31 41.21075 1.38573 3268 ft 270 kts 249°
2026-05-09 13:32 41.20640 1.37034 3121 ft 256 kts 248°
2026-05-09 13:32 41.19276 1.32349 2463 ft 228 kts 246°
2026-05-09 13:32 41.18720 1.30425 2225 ft 209 kts 248°
2026-05-09 13:33 41.18224 1.28714 1959 ft 190 kts 247°
2026-05-09 13:33 41.17765 1.27128 1685 ft 180 kts 246°
2026-05-09 13:33 41.17322 1.25604 1495 ft 171 kts 247°
2026-05-09 13:33 41.16900 1.24157 1231 ft 165 kts 247°
2026-05-09 13:34 41.16486 1.22738 1019 ft 165 kts 249°
2026-05-09 13:34 41.16084 1.21341 791 ft 159 kts 248°
2026-05-09 13:34 41.15691 1.19993 553 ft 154 kts 249°
2026-05-09 13:34 41.15312 1.18670 356 ft 153 kts 249°
2026-05-09 13:35 41.14938 1.17394 247 ft 132 kts 249°
2026-05-09 13:35 41.14702 1.16578 247 ft 63 kts 249°
2026-05-09 13:35 41.14567 1.16119 247 ft 49 kts 249°
2026-05-09 13:35 41.14540 1.15911 247 ft 9 kts 331°
2026-05-09 13:36 41.14602 1.15884 247 ft 10 kts 342°
2026-05-09 13:36 41.14654 1.15842 247 ft 5 kts 294°
2026-05-09 13:36 41.14654 1.15808 247 ft 4 kts 275°
2026-05-09 13:36 41.14667 1.15783 247 ft 3 kts 323°
2026-05-09 13:37 41.14689 1.15769 247 ft 4 kts 339°
2026-05-09 13:37 41.14722 1.15752 247 ft 0 kts 339°